Regional Weather Roundup
Issued by NWS

Home | Current Version | Previous Version | Text Only | Print | Product List | Glossary On
Versions: 1 2 3 4 5 6 7 8 9 10 11 12 13 14 15 16 17 18 19 20 21 22 23 24 25 26 27 28 29 30 31 32 33 34 35 36 37 38 39 40 41 42 43 44 45 46 47 48 49 50
000
ASUS43 KLSX 291307
RWRMO

WEATHER SUMMARY FOR MISSOURI
NATIONAL WEATHER SERVICE SPRINGFIELD MO
800 AM CDT WED JUL 29 2015

NOTE: "FAIR" INDICATES FEW OR NO CLOUDS BELOW 12,000 FEET WITH NO
       SIGNIFICANT WEATHER AND/OR OBSTRUCTIONS TO VISIBILITY.
       CURRENT SKY AND/OR WEATHER CONDITIONS ARE NOT AVAILABLE FOR
       CHILLICOTHE AND FARMINGTON.

MOZ001>031-035>038-043-044-053-054-291400-
...NORTHERN AND WESTERN MISSOURI...

CITY           SKY/WX    TMP DP  RH WIND       PRES   REMARKS
KANSAS CTY INT LGT RAIN  71  70  96 NW6       30.12S
KANSAS C DTWN  LGT RAIN  73  71  93 N5        30.09R
LEE`S SUMMIT   LGT RAIN  72  69  90 CALM      30.10R
ST JOSEPH      CLOUDY    72  71  97 W3        30.13R
CHILLICOTHE      N/A     73  71  93 CALM      30.09R
KIRKSVILLE     CLOUDY    72  70  93 NW7       30.08R

$$
MOZ066>068-077>081-088>096-101>105-291400-
...SOUTHWEST MISSOURI...

CITY           SKY/WX    TMP DP  RH WIND       PRES   REMARKS
SPRINGFIELD    SUNNY     79  73  82 N7        30.10R
JOPLIN         SUNNY     79  74  84 N7        30.10R

$$
MOZ032>034-039>042-045>050-055>058-069>072-291400-
...CENTRAL MISSOURI...

CITY           SKY/WX    TMP DP  RH WIND       PRES   REMARKS
COLUMBIA       MOSUNNY   75  70  84 SE3       30.03F
JEFFERSON CITY SUNNY     77  69  76 CALM      30.03S
ROLLA          MOSUNNY   77  73  87 NW6       30.05R
SEDALIA        PTSUNNY   75  69  81 SW6       30.04F
WHITEMAN AFB   PTSUNNY   73  69  87 W6        30.04S
WARRENSBURG    PTSUNNY   70  68  94 W8        30.08R
OSAGE BEACH    SUNNY    N/A N/A N/A CALM      30.07S

$$
MOZ051-052-059>065-291400-
...EAST CENTRAL MISSOURI...

CITY           SKY/WX    TMP DP  RH WIND       PRES   REMARKS
ST LOUIS INTL  PTSUNNY   82  72  71 NW9       30.02R
SPIRIT OF STL  MOSUNNY   81  74  79 N5        30.01R
ST CHARLES     PTSUNNY   79  72  79 NW6       30.00R

$$
MOZ072>076-082>087-097>100-106>115-291400-
...SOUTH CENTRAL AND SOUTHEAST MISSOURI...

CITY           SKY/WX    TMP DP  RH WIND       PRES   REMARKS
CAPE GIRARDEAU SUNNY     81  78  91 W3        30.00S
FARMINGTON     SUNNY     79  75  89 SW3       30.07S
POPLAR BLUFF   MOSUNNY   83  77  82 CALM      30.00R HX  92
WEST PLAINS    MOSUNNY   80  74  81 W7        30.09R

$$



USA.gov is the U.S. government's official web portal to all federal, state and local government web resources and services.